Retour au catalogue

HULIANWANG DIGUI-80

ActifCommunicationsLEO
NORAD 65312·PAYLOAD·🇨🇳 China

Lancé Aug 25, 2025 depuis Wenchang Space Launch Site

Loading…

Prochains Passages (prochaines 24 heures)

TLE

FraisSource: Space-Track

Époque: Sep 14, 2026, 12:49 UTC

1 65312U 25187H   26257.53427401 -.00000106  00000-0  39670-4 0  9995
2 65312  50.0016 245.4522 0000855 339.4685  20.6152 13.29325453 51583

Suivez HULIANWANG DIGUI-80 en temps réel avec AllMySat

Download on the App Store